IK2CHZ Weather Reports


Display with metric or nautical units.
time (UTC)temp
F
wind
direction
speed
MPH
gust
MPH
rain 1hr
in
rain 24hr
in
rain mn
in
humidity
%
barometer
mb
20260506043504 56 78 0.0 0.0 0.22 0.52 0.25 93 1010.0
20260506043004 56 78 1.0 2.0 0.22 0.51 0.24 93 1009.9
20260506042003 56 81 1.0 3.0 0.19 0.47 0.20 93 1009.1
20260506041504 56 93 2.0 3.0 0.18 0.45 0.18 93 1009.4
20260506040503 57 121 1.0 2.0 0.13 0.40 0.13 93 1010.2
20260506035004 57 115 3.0 7.0 0.06 0.33 0.06 92 1010.2
20260506034504 56 115 0.0 3.0 0.05 0.32 0.05 92 1010.1
20260506033005 56 104 1.0 3.0 0.02 0.29 0.02 92 1010.1
20260506032504 57 105 1.0 3.0 0.01 0.28 0.01 92 1010.1
20260506032004 57 106 2.0 3.0 0.01 0.28 0.01 92 1010.1
20260506031504 57 103 2.0 6.0 0.00 0.27 0.00 92 1010.2
20260506031004 57 90 1.0 6.0 0.00 0.27 0.00 92 1010.1
20260506030504 57 86 2.0 3.0 0.00 0.27 0.00 92 1010.2
20260506025503 57 101 0.0 1.0 0.00 0.27 0.00 92 1010.3
20260506024003 57 107 2.0 3.0 0.00 0.27 0.00 92 1010.4
20260506023503 57 106 2.0 3.0 0.00 0.27 0.00 92 1010.5
20260506023003 57 109 1.0 3.0 0.00 0.27 0.00 92 1010.7
20260506021503 57 107 1.0 5.0 0.00 0.27 0.00 92 1010.8
20260506021003 57 113 2.0 3.0 0.00 0.27 0.00 92 1010.8
20260506020003 57 113 2.0 5.0 0.00 0.27 0.00 91 1010.8
20260506015503 57 111 2.0 7.0 0.00 0.27 0.00 91 1010.9
20260506013003 57 101 2.0 5.0 0.00 0.27 0.00 91 1010.9
20260506012503 57 98 3.0 5.0 0.00 0.27 0.00 91 1010.9
20260506012004 57 105 2.0 3.0 0.00 0.27 0.00 91 1011.0
20260506011003 57 87 2.0 3.0 0.00 0.27 0.00 91 1011.1
20260506010503 57 97 2.0 5.0 0.00 0.27 0.00 91 1011.0
20260506010003 57 73 1.0 5.0 0.00 0.27 0.00 91 1011.0
20260506003504 57 89 1.0 3.0 0.00 0.27 0.00 91 1011.2
20260506003004 57 99 2.0 3.0 0.00 0.27 0.00 91 1011.3
20260506002503 57 108 1.0 3.0 0.00 0.27 0.00 91 1011.5
20260506002003 58 104 1.0 3.0 0.00 0.27 0.00 91 1011.4
20260506001004 58 119 1.0 2.0 0.00 0.27 0.00 91 1011.6
20260506000503 58 120 0.0 2.0 0.00 0.27 0.00 91 1011.7
20260506000004 58 123 1.0 2.0 0.00 0.27 0.00 91 1011.8
20260505235504 58 141 1.0 3.0 0.00 0.27 0.00 91 1011.9
20260505235004 58 126 1.0 2.0 0.00 0.27 0.00 91 1012.0
20260505233504 58 112 1.0 2.0 0.00 0.27 0.00 91 1012.1
20260505233004 58 110 1.0 2.0 0.00 0.27 0.00 91 1012.1
20260505232003 58 91 1.0 2.0 0.00 0.27 0.00 91 1012.1
20260505231504 58 88 0.0 1.0 0.00 0.27 0.00 91 1012.1
20260505231003 58 87 0.0 1.0 0.00 0.27 0.00 91 1012.0
20260505230503 58 85 0.0 0.0 0.00 0.27 0.00 91 1012.0
20260505224503 58 85 0.0 0.0 0.00 0.27 0.00 91 1012.1
20260505222003 58 85 0.0 0.0 0.00 0.27 0.00 90 1012.3
20260505221004 58 85 0.0 0.0 0.00 0.27 0.00 90 1012.4
20260505214503 58 85 0.0 0.0 0.00 0.27 0.27 90 1012.4
20260505214003 58 85 0.0 0.0 0.00 0.27 0.27 90 1012.4
20260505213503 58 85 0.0 1.0 0.00 0.27 0.27 90 1012.5
20260505213003 58 86 0.0 2.0 0.01 0.27 0.27 90 1012.5
20260505211504 58 74 0.0 1.0 0.03 0.27 0.27 90 1012.7
20260505210504 58 74 0.0 0.0 0.05 0.27 0.27 90 1012.7
20260505205503 58 74 0.0 0.0 0.06 0.27 0.27 90 1012.8
20260505204503 58 78 1.0 2.0 0.12 0.27 0.27 90 1012.7
20260505203504 58 80 1.0 2.0 0.12 0.27 0.27 90 1012.8
20260505202503 59 82 0.0 2.0 0.11 0.26 0.26 89 1012.8
20260505202003 59 82 0.0 2.0 0.10 0.25 0.25 89 1012.8
20260505200004 60 82 0.0 1.0 0.07 0.22 0.22 87 1012.7
20260505193504 60 85 2.0 5.0 0.00 0.15 0.15 86 1012.5
20260505190004 60 82 1.0 3.0 0.00 0.15 0.15 86 1012.5
20260505185004 60 83 1.0 2.0 0.00 0.15 0.15 86 1012.5
20260505184004 60 85 1.0 3.0 0.00 0.15 0.15 86 1012.4
20260505183503 60 95 1.0 3.0 0.00 0.15 0.15 86 1012.4
20260505182504 60 103 2.0 3.0 0.00 0.15 0.15 85 1012.3
20260505182004 60 82 1.0 3.0 0.00 0.15 0.15 86 1012.3
20260505181004 60 94 1.0 3.0 0.00 0.15 0.15 85 1012.4
20260505180504 60 98 2.0 5.0 0.00 0.15 0.15 85 1012.3
20260505180004 60 78 1.0 5.0 0.00 0.15 0.15 85 1012.3
20260505174504 60 69 2.0 3.0 0.00 0.15 0.15 85 1012.3
20260505174004 60 70 2.0 3.0 0.00 0.15 0.15 85 1012.3
20260505173004 60 71 2.0 3.0 0.00 0.15 0.15 85 1012.3
20260505171504 60 36 1.0 6.0 0.00 0.15 0.15 85 1012.3
20260505171003 60 85 2.0 7.0 0.00 0.15 0.15 85 1012.3
20260505165504 60 88 2.0 5.0 0.00 0.15 0.15 85 1012.3
20260505164504 60 84 1.0 2.0 0.00 0.15 0.15 86 1012.4
20260505163504 60 74 2.0 5.0 0.00 0.15 0.15 86 1012.5
20260505161503 61 73 3.0 7.0 0.00 0.15 0.15 85 1012.5
20260505160504 61 95 2.0 6.0 0.00 0.15 0.15 84 1012.6
20260505153003 60 73 3.0 6.0 0.00 0.15 0.15 85 1012.7
20260505152504 60 76 2.0 3.0 0.00 0.15 0.15 86 1012.7
20260505152003 60 84 4.0 7.0 0.00 0.15 0.15 85 1012.7
20260505151503 60 91 1.0 6.0 0.00 0.15 0.15 86 1012.8
20260505150504 60 94 3.0 6.0 0.00 0.15 0.15 86 1012.8
20260505140504 59 68 2.0 6.0 0.00 0.15 0.15 88 1012.8
20260505124504 60 86 3.0 7.0 0.00 0.14 0.14 84 1013.0
20260505124004 60 94 3.0 7.0 0.00 0.14 0.14 84 1013.0
20260505122504 61 104 3.0 7.0 0.00 0.14 0.14 82 1013.0
20260505122004 61 115 3.0 8.0 0.00 0.14 0.14 82 1013.1
20260505121004 61 83 3.0 7.0 0.00 0.14 0.14 82 1013.1
20260505115503 60 71 1.0 3.0 0.00 0.14 0.14 86 1013.1
20260505115003 60 75 2.0 7.0 0.00 0.14 0.14 86 1013.2
20260505114503 60 72 1.0 3.0 0.00 0.14 0.14 86 1013.2
20260505113004 60 113 1.0 3.0 0.00 0.14 0.14 85 1013.2
20260505112504 60 82 2.0 5.0 0.00 0.14 0.14 85 1013.2
20260505112004 60 126 1.0 3.0 0.00 0.14 0.14 85 1013.2
20260505111504 60 126 0.0 2.0 0.00 0.14 0.14 85 1013.2
20260505111004 60 122 0.0 3.0 0.00 0.14 0.14 85 1013.3
20260505110503 60 117 2.0 3.0 0.00 0.14 0.14 85 1013.3
20260505101504 59 139 3.0 7.0 0.00 0.14 0.14 86 1013.4
20260505100503 59 142 2.0 3.0 0.00 0.14 0.14 87 1013.4
20260505100004 59 116 1.0 7.0 0.00 0.14 0.14 87 1013.4
20260505095504 59 89 2.0 7.0 0.00 0.14 0.14 88 1013.4
20260505094003 58 71 1.0 3.0 0.00 0.14 0.14 89 1013.3
20260505091504 57 228 0.0 2.0 0.04 0.14 0.14 91 1013.3
20260505091004 57 230 0.0 0.0 0.04 0.14 0.14 91 1013.3
20260505084504 57 230 0.0 1.0 0.07 0.14 0.14 90 1013.2
20260505084004 57 230 0.0 1.0 0.08 0.14 0.14 91 1013.1
20260505083504 57 230 0.0 1.0 0.09 0.14 0.14 90 1013.0
20260505080504 57 227 0.0 1.0 0.07 0.10 0.10 90 1012.8
20260505074504 57 228 0.0 2.0 0.06 0.07 0.07 90 1012.9
20260505073504 57 232 1.0 2.0 0.04 0.05 0.05 90 1013.0
20260505072003 56 232 1.0 3.0 0.03 0.04 0.04 90 1013.4
20260505071503 56 231 2.0 3.0 0.02 0.03 0.03 90 1013.5
20260505070004 57 236 2.0 5.0 0.02 0.03 0.03 89 1013.4
20260505065004 57 235 1.0 3.0 0.02 0.02 0.02 89 1013.4
20260505064504 57 240 2.0 6.0 0.01 0.01 0.01 89 1013.4
20260505063504 57 228 2.0 7.0 0.01 0.01 0.01 88 1013.4
20260505063003 57 232 3.0 9.0 0.01 0.01 0.01 87 1013.3
20260505062004 57 227 2.0 9.0 0.01 0.01 0.01 86 1013.2
20260505061504 58 230 4.0 9.0 0.01 0.01 0.01 84 1013.2
20260505061004 58 233 3.0 6.0 0.01 0.01 0.01 83 1013.1
20260505060004 59 247 3.0 7.0 0.01 0.01 0.01 82 1013.1
20260505054504 59 235 2.0 3.0 0.00 0.00 0.00 80 1012.8
20260505054004 59 234 2.0 3.0 0.00 0.00 0.00 79 1012.8
20260505053504 59 237 2.0 3.0 0.00 0.00 0.00 78 1012.7
20260505052503 60 244 2.0 3.0 0.00 0.00 0.00 77 1012.5
20260505052003 60 265 2.0 3.0 0.00 0.00 0.00 75 1012.4
20260505050504 61 304 0.0 0.0 0.00 0.00 0.00 73 1012.3